Погода в Гааге

Нидерланды     52°04′49″N   4°18′34″E
темп.,
°C
ветер,
м/с
пор.,
м/с
влажн.,
%
обл.,
%
осадки,
мм/ч
давл.,
гПа
погр.,
м
10 апреля, сб
сб1023:00+6св4687100 0.0 1013337
02:00+6всв4585100 0.0 1013456
05:00+5св4589100 0.5 1013840
08:00+5всв5889100 1.2 1014621
11:00+5всв6884100 0.1 1015707
14:00+5всв6987100 0.3 1014735
17:00+4св61096100 2.6 1012788
20:00+4св71296100 5.6 1011820
11 апреля, вс
вс1123:00+3св71296100 0.6 1011705
02:00+3ссв81396100 1.1 1011742
05:00+3ссв71396100 0.3 1012742
08:00+4ссв7108092 0.4 1013923
11:00+6ссв785950 0.0 10151392
14:00+7с78495 0.0 10161431
17:00+7с78505 0.0 10181365
20:00+6с67555 0.0 10201265
12 апреля, пн
пн1223:00+5с46585 0.0 1022642
02:00+4ссз35645 0.0 1023388
05:00+4сз466892 0.1 1024395
08:00+5сз3560100 0.1 1026608
11:00+6зсз455148 0.0 10271467
14:00+7зсз55566 0.3 10281300
17:00+7сз545723 0.1 10281298
20:00+6ссз45574 0.1 10291016
13 апреля, вт
вт1323:00+5с34575 0.0 1031464
02:00+4ссз35595 0.0 1032399
05:00+4ссз46625 0.0 1032434
08:00+5ссз46605 0.0 1033611
11:00+7ссз445311 0.0 10341421
14:00+8сз44499 0.1 10341563
17:00+7сз555199 0.0 10331297
20:00+6ссз34555 0.0 1034864
14 апреля, ср
ср1423:00+5с23555 0.0 1034311
02:00+4с12585 0.0 1034207
05:00+3ссв12625 0.0 1034220
08:00+4св12645 0.0 1034261
11:00+7ссв34484 0.0 10351296
14:00+8ссз544547 0.0 10341520
17:00+8с66498 0.0 10341181
20:00+7ссв67565 0.0 1033854